Location: Old Broadwell Mill Observatory
(33.8015°N, 85.8137°W)
Time: 12:46:40
(UTC-05:00)

Amateur Radio Satellites - All Passes

Search period start: 23 April 2017 12:16
Search period end: 24 April 2017 12:16
Location: Old Broadwell Mill Observatory, 33.8015°N, 85.8137°W

Satellite Date Start Highest point End Downlink Frequencies (MHz)
Time Altitude Azimuth
SPROUT 23 Apr 12:18:17 12:21:34 22° 96° (E) 12:24:51 437.525
POLYITAN 1 23 Apr 12:19:05 12:23:01 38° 261° (W) 12:26:57 437.675
VELOX 1 23 Apr 12:22:18 12:26:03 27° 97° (E) 12:29:45 145.980
QB50P2 23 Apr 12:25:46 12:29:26 29° 263° (W) 12:33:08 145.880/145.840
Gurwin Techsat 1B 23 Apr 12:33:21 12:35:50 13° 64° (ENE) 12:38:19 435.225
PCSat 23 Apr 12:38:19 12:43:44 70° 63° (ENE) 12:49:07 145.827
RS-15 23 Apr 12:39:37 12:44:08 12° 354° (N) 12:48:38 29.354- 29.394
AO-85 23 Apr 12:51:24 12:55:35 41° 115° (ESE) 12:59:30 145.980
NANOSAT C BR1 23 Apr 12:52:36 12:55:25 17° 265° (W) 12:58:13 145.865
Oscar 19 23 Apr 12:59:34 13:04:24 43° 72° (ENE) 13:09:16 437.125/150
UKube-1 23 Apr 13:02:10 13:05:08 18° 95° (E) 13:08:06 .
50 SAT 23 Apr 13:03:43 13:07:06 46° 100° (E) 13:10:27 437.505
BUGSAT 1 23 Apr 13:05:00 13:09:00 44° 260° (W) 13:12:58 437.445
DX 1 23 Apr 13:26:13 13:30:31 54° 101° (E) 13:34:45 434.975-435.025
ESTCUBE 1 23 Apr 13:30:19 13:32:31 13° 294° (WNW) 13:34:43 437.505/2401.250
SPROUT 23 Apr 13:53:56 13:57:23 24° 289° (WNW) 14:00:48 437.525
VELOX 1 23 Apr 13:58:54 14:02:19 22° 291° (WNW) 14:05:42 145.980
BEESAT 3 23 Apr 14:02:12 14:05:47 37° 113° (ESE) 14:09:27 437.485
Gurwin Techsat 1B 23 Apr 14:09:53 14:15:09 66° 258° (WSW) 14:20:27 435.225
AO-7 23 Apr 14:15:09 14:22:03 31° 61° (ENE) 14:28:56 .
ITAMSAT 1 23 Apr 14:18:23 14:22:10 21° 67° (ENE) 14:25:57 435.822/435.867
PCSat 23 Apr 14:24:24 14:26:27 12° 257° (WSW) 14:28:29 145.827
AO-85 23 Apr 14:33:25 14:36:04 16° 308° (NW) 14:38:38 145.980
UKube-1 23 Apr 14:37:22 14:41:10 30° 289° (WNW) 14:44:56 .
Oscar 19 23 Apr 14:40:24 14:43:51 18° 266° (W) 14:47:19 437.125/150
ITUPSAT 1 23 Apr 14:42:12 14:45:25 18° 95° (E) 14:48:36 437.325
YUBILEINY 23 Apr 14:44:02 14:50:22 21° 70° (ENE) 14:56:40 435.215
RS-15 23 Apr 14:55:21 15:04:01 21° 32° (NNE) 15:12:26 29.354- 29.394
DX 1 23 Apr 15:04:50 15:06:10 11° 295° (WNW) 15:07:31 434.975-435.025
Tancredo 1 23 Apr 15:21:29 15:22:46 12° 29° (NNE) 15:24:01 437.200
BEESAT 2 23 Apr 15:29:47 15:33:38 52° 301° (WNW) 15:37:33 435.950
BEESAT 23 Apr 15:40:29 15:45:16 83° 103° (ESE) 15:50:02 436.000
BEESAT 3 23 Apr 15:41:04 15:43:30 16° 309° (NW) 15:45:59 437.485
SO-50 23 Apr 15:46:21 15:50:02 24° 53° (NE) 15:53:41 436.795
ITAMSAT 1 23 Apr 15:56:27 16:01:18 40° 261° (W) 16:06:10 435.822/435.867
AO-7 23 Apr 16:06:19 16:14:21 54° 257° (WSW) 16:22:26 .
MOZHAYETS 4 23 Apr 16:06:28 16:11:05 76° 102° (ESE) 16:15:42
ITUPSAT 1 23 Apr 16:18:54 16:23:18 38° 288° (WNW) 16:27:42 437.325
YUBILEINY 23 Apr 16:39:07 16:47:48 69° 268° (W) 16:56:30 435.215
KKS-1 23 Apr 16:45:42 16:49:38 31° 98° (E) 16:53:32 437.445
CUBESAT XI-V 23 Apr 16:47:55 16:52:10 33° 97° (E) 16:56:23 437.345
ISS 23 Apr 16:50:22 16:53:37 70° 43° (NE) 16:56:51 437.550
Tancredo 1 23 Apr 16:55:55 16:59:01 71° 224° (SW) 17:02:06 437.200
RS-15 23 Apr 17:07:08 17:19:20 69° 58° (ENE) 17:30:52 29.354- 29.394
DOVE 4 23 Apr 17:08:33 17:13:02 29° 70° (ENE) 17:17:32 437.250
XW-2D 23 Apr 17:09:28 17:11:00 12° 68° (ENE) 17:12:32 145.860 - 145.880
XW-2B 23 Apr 17:15:45 17:17:47 14° 69° (ENE) 17:19:50 145.730 - 145.750
LilacSat-2 23 Apr 17:21:49 17:24:28 18° 71° (ENE) 17:27:06 437.200
SO-50 23 Apr 17:26:32 17:30:26 29° 248° (WSW) 17:34:20 436.795
XW-2C 23 Apr 17:26:39 17:29:26 20° 71° (ENE) 17:32:12 145.795 - 145.815
STARS 23 Apr 17:27:31 17:31:36 38° 99° (E) 17:35:39 437.465
KAITUO 1B 23 Apr 17:33:23 17:36:00 19° 71° (ENE) 17:38:38 145.475/437.950
XW-2F 23 Apr 17:54:00 17:57:33 44° 75° (ENE) 18:01:07 145.980 - 146.000
JUGNU 23 Apr 18:03:36 18:06:40 14° 167° (SSE) 18:09:43 437.505
NUDT-PHONESAT 23 Apr 18:16:18 18:19:57 75° 77° (ENE) 18:23:37 437.300
CUTE-I 23 Apr 18:17:10 18:22:32 84° 76° (ENE) 18:27:54 437.470
KKS-1 23 Apr 18:22:47 18:25:56 19° 292° (WNW) 18:29:04 437.445
CUBESAT XI-V 23 Apr 18:25:48 18:29:16 21° 291° (WNW) 18:32:44 437.345
CUTE 1.7 + AOD 2 23 Apr 18:25:57 18:27:58 13° 67° (ENE) 18:30:00 437.475
XW-2D 23 Apr 18:41:25 18:44:50 34° 262° (W) 18:48:16 145.860 - 145.880
DOVE 4 23 Apr 18:46:00 18:50:33 29° 264° (W) 18:55:09 437.250
XW-2B 23 Apr 18:48:25 18:51:42 28° 263° (W) 18:54:58 145.730 - 145.750
SEEDS 23 Apr 18:52:00 18:54:43 17° 69° (ENE) 18:57:27 437.485
CUBEBUG 2 23 Apr 18:54:35 18:56:47 14° 68° (ENE) 18:58:56 437.445
LilacSat-2 23 Apr 18:55:36 18:58:34 22° 264° (W) 19:01:32 437.200
HO-68 23 Apr 18:58:51 19:05:44 53° 70° (ENE) 19:12:38 435.675
XW-2C 23 Apr 19:00:43 19:03:29 20° 264° (W) 19:06:17 145.795 - 145.815
NO-84 23 Apr 19:02:47 19:04:29 13° 124° (ESE) 19:06:07 435.350 FM
STARS 23 Apr 19:05:02 19:07:35 15° 293° (WNW) 19:10:06 437.465
KAITUO 1B 23 Apr 19:07:03 19:09:51 20° 264° (W) 19:12:40 145.475/437.950
STRAND 1 23 Apr 19:12:37 19:16:27 21° 95° (E) 19:20:16 437.568
RS-15 23 Apr 19:21:06 19:30:40 29° 258° (WSW) 19:39:57 29.354- 29.394
XW-2A 23 Apr 19:21:42 19:25:04 73° 78° (ENE) 19:28:25 145.665 - 145.685
M-CUBED/EXP-1 PRIME 23 Apr 19:43:02 19:46:51 35° 102° (ESE) 19:50:24 437.505
JUGNU 23 Apr 19:50:43 19:54:59 20° 177° (S) 19:59:17 437.505
ZACube-1 23 Apr 19:51:23 19:54:25 19° 70° (ENE) 19:57:25 437.345
CUTE 1.7 + AOD 2 23 Apr 19:59:26 20:03:24 41° 262° (W) 20:07:24 437.475
AO-73 23 Apr 20:00:07 20:03:22 22° 71° (ENE) 20:06:35 145.935
AAUSAT CUBESAT 2 23 Apr 20:08:50 20:12:55 69° 76° (ENE) 20:17:03 437.432
Oscar 11 23 Apr 20:19:19 20:23:06 31° 72° (ENE) 20:26:54 .
UWE-3 23 Apr 20:22:45 20:27:07 89° 77° (ENE) 20:31:23 435.000/436.395/437.385
O/OREOS (USA 219) 23 Apr 20:24:24 20:28:10 25° 63° (ENE) 20:31:53 437.305
SEEDS 23 Apr 20:26:26 20:30:07 30° 263° (W) 20:33:51 437.485
CUBEBUG 2 23 Apr 20:28:45 20:33:01 44° 261° (W) 20:37:10 437.445
NO-84 23 Apr 20:38:12 20:41:47 47° 313° (NW) 20:45:06 435.350 FM
HO-68 23 Apr 20:48:06 20:53:39 24° 265° (W) 20:59:15 435.675
STRAND 1 23 Apr 20:51:01 20:55:39 36° 289° (WNW) 21:00:17 437.568
SRMSAT 23 Apr 21:07:21 21:10:57 16° 169° (S) 21:14:33 437.500
M-CUBED/EXP-1 PRIME 23 Apr 21:18:23 21:20:54 16° 298° (WNW) 21:23:19 437.505
OBJECT BX 23 Apr 21:21:56 21:25:09 31° 73° (ENE) 21:28:23 145.990 - 145.960
DELFI C3 23 Apr 21:23:59 21:27:47 48° 75° (ENE) 21:31:38 145.870
ZACube-1 23 Apr 21:26:52 21:30:29 27° 263° (W) 21:34:05 437.345
AO-85 23 Apr 21:27:41 21:29:14 12° 50° (NE) 21:30:48 145.980
AO-73 23 Apr 21:36:02 21:39:27 24° 264° (W) 21:42:50 145.935
JUGNU 23 Apr 21:39:17 21:43:22 19° 187° (S) 21:47:26 437.505
UNISAT 6 23 Apr 21:40:51 21:42:45 13° 93° (E) 21:44:40 437.425
Oscar 11 23 Apr 21:56:23 21:59:14 17° 266° (W) 22:02:07 .
O/OREOS (USA 219) 23 Apr 22:03:43 22:07:27 25° 258° (WSW) 22:11:09 437.305
PRISM 23 Apr 22:08:33 22:12:35 48° 100° (E) 22:16:34 437.425
FO-29 23 Apr 22:17:35 22:22:00 27° 98° (E) 22:26:38 435.910
LO-87 23 Apr 22:36:49 22:40:08 34° 74° (ENE) 22:43:26 145.935 - 145.965
ESTCUBE 1 23 Apr 22:47:41 22:51:28 28° 71° (ENE) 22:55:18 437.505/2401.250
SRMSAT 23 Apr 22:55:06 22:59:28 21° 179° (S) 23:03:48 437.500
TIGRISAT 23 Apr 22:55:09 22:59:25 83° 284° (WNW) 23:03:45 435.000
OBJECT BX 23 Apr 22:57:29 22:58:53 12° 266° (W) 23:00:18 145.990 - 145.960
AO-85 23 Apr 23:05:56 23:09:51 54° 244° (WSW) 23:14:00 145.980
AIST 2D 23 Apr 23:06:07 23:07:41 13° 94° (E) 23:09:17 435.315
SPROUT 23 Apr 23:10:04 23:11:07 11° 66° (ENE) 23:12:10 437.525
UNISAT 6 23 Apr 23:15:34 23:19:36 42° 286° (WNW) 23:23:41 437.425
VELOX 1 23 Apr 23:16:40 23:19:19 16° 67° (ENE) 23:21:57 145.980
JUGNU 23 Apr 23:29:57 23:31:40 11° 196° (SSW) 23:33:22 437.505
EO-79 23 Apr 23:30:35 23:32:57 15° 94° (E) 23:35:19 145.935-145.965
DUCHIFAT 1 23 Apr 23:36:45 23:38:56 14° 94° (E) 23:41:07 145.980
PRISM 23 Apr 23:46:08 23:47:22 11° 294° (WNW) 23:48:38 437.425
BEESAT 2 23 Apr 23:51:18 23:54:42 25° 55° (NE) 23:58:03 435.950
BEESAT 3 23 Apr 23:59:30 00:03:32 90° 195° (SSW) 00:07:29 437.485
FO-29 24 Apr 00:02:38 00:07:02 28° 290° (WNW) 00:11:38 435.910
POLYITAN 1 24 Apr 00:07:25 00:11:25 43° 99° (E) 00:15:24 437.675
LO-87 24 Apr 00:12:41 00:13:40 11° 267° (W) 00:14:38 145.935 - 145.965
QB50P2 24 Apr 00:13:44 00:17:52 57° 101° (E) 00:21:59 145.880/145.840
DX 1 24 Apr 00:18:03 00:21:47 28° 71° (ENE) 00:25:32 434.975-435.025
ESTCUBE 1 24 Apr 00:24:44 00:28:12 22° 264° (W) 00:31:41 437.505/2401.250
AIST 2D 24 Apr 00:37:55 00:40:55 27° 287° (WNW) 00:43:56 435.315
NANOSAT C BR1 24 Apr 00:38:58 00:43:10 82° 281° (WNW) 00:47:20 145.865
SPROUT 24 Apr 00:42:19 00:46:30 54° 260° (W) 00:50:42 437.525
SRMSAT 24 Apr 00:44:10 00:47:58 17° 190° (S) 00:51:45 437.500
BUGSAT 1 24 Apr 00:50:37 00:54:13 31° 98° (E) 00:57:48 437.445
VELOX 1 24 Apr 00:51:13 00:55:23 40° 261° (W) 00:59:35 145.980
EO-79 24 Apr 01:04:58 01:08:47 35° 287° (WNW) 01:12:35 145.935-145.965
50 SAT 24 Apr 01:05:25 01:08:37 36° 261° (W) 01:11:52 437.505
DUCHIFAT 1 24 Apr 01:10:52 01:14:41 36° 287° (WNW) 01:18:30 145.980
Oscar 19 24 Apr 01:15:43 01:19:37 21° 95° (E) 01:23:29 437.125/150
UKube-1 24 Apr 01:27:05 01:31:21 62° 259° (W) 01:35:39 .
BEESAT 2 24 Apr 01:29:09 01:32:19 22° 249° (WSW) 01:35:26 435.950
PCSat 24 Apr 01:35:18 01:38:19 15° 104° (ESE) 01:41:21 145.827
POLYITAN 1 24 Apr 01:44:55 01:46:46 13° 293° (WNW) 01:48:38 437.675
ITUPSAT 1 24 Apr 01:46:09 01:48:36 14° 65° (ENE) 01:51:03 437.325
DX 1 24 Apr 01:54:40 01:57:55 20° 264° (W) 02:01:11 434.975-435.025
BUGSAT 1 24 Apr 02:26:56 02:29:17 15° 292° (WNW) 02:31:37 437.445
Gurwin Techsat 1B 24 Apr 02:30:02 02:35:20 69° 102° (ESE) 02:40:36 435.225
BEESAT 24 Apr 02:42:47 02:47:27 61° 74° (ENE) 02:52:08 436.000
Oscar 19 24 Apr 02:54:12 02:58:59 38° 289° (WNW) 03:03:44 437.125/150
MOZHAYETS 4 24 Apr 03:04:21 03:08:40 44° 74° (ENE) 03:12:59
PCSat 24 Apr 03:15:51 03:21:09 57° 298° (WNW) 03:26:30 145.827
NO-84 24 Apr 03:16:43 03:17:56 12° 37° (NE) 03:19:08 435.350 FM
ITUPSAT 1 24 Apr 03:21:20 03:25:57 51° 260° (W) 03:30:35 437.325
YUBILEINY 24 Apr 03:40:14 03:47:13 28° 84° (E) 03:54:10 435.215
KKS-1 24 Apr 03:40:33 03:43:40 19° 68° (ENE) 03:46:47 437.445
CUBESAT XI-V 24 Apr 03:47:54 03:51:20 21° 69° (ENE) 03:54:48 437.345
AO-7 24 Apr 04:11:55 04:20:12 68° 105° (ESE) 04:28:28 .
Gurwin Techsat 1B 24 Apr 04:12:19 04:14:37 13° 297° (WNW) 04:16:54 435.225
ITAMSAT 1 24 Apr 04:12:47 04:17:58 83° 284° (WNW) 04:23:08 435.822/435.867
STARS 24 Apr 04:20:42 04:24:05 22° 69° (ENE) 04:27:28 437.465
BEESAT 24 Apr 04:24:27 04:25:32 11° 268° (W) 04:26:37 436.000
MOZHAYETS 4 24 Apr 04:43:41 04:45:58 14° 267° (W) 04:48:18
NO-84 24 Apr 04:52:55 04:55:32 34° 232° (SW) 04:58:10 435.350 FM
KKS-1 24 Apr 05:15:55 05:19:57 33° 262° (W) 05:23:59 437.445
RS-15 24 Apr 05:23:49 05:25:22 10° 95° (E) 05:26:56 29.354- 29.394
CUBESAT XI-V 24 Apr 05:24:23 05:28:28 31° 263° (W) 05:32:36 437.345
YUBILEINY 24 Apr 05:35:02 05:43:26 53° 281° (W) 05:51:53 435.215
STARS 24 Apr 05:56:30 06:00:14 27° 263° (W) 06:04:00 437.465
SO-50 24 Apr 05:57:28 06:00:41 19° 110° (ESE) 06:03:52 436.795
AO-7 24 Apr 06:06:00 06:12:13 24° 301° (WNW) 06:18:28 .
XW-2D 24 Apr 06:17:35 06:20:55 29° 97° (E) 06:24:15 145.860 - 145.880
XW-2B 24 Apr 06:24:18 06:27:48 34° 98° (E) 06:31:17 145.730 - 145.750
M-CUBED/EXP-1 PRIME 24 Apr 06:24:23 06:28:12 27° 65° (ENE) 06:32:07 437.505
STRAND 1 24 Apr 06:24:59 06:28:46 21° 67° (ENE) 06:32:33 437.568
LilacSat-2 24 Apr 06:31:36 06:35:18 46° 99° (E) 06:39:00 437.200
XW-2C 24 Apr 06:35:53 06:39:36 51° 100° (E) 06:43:19 145.795 - 145.815
HO-68 24 Apr 06:35:56 06:36:38 10° 90° (E) 06:37:20 435.675
CUTE-I 24 Apr 06:38:22 06:43:28 46° 100° (E) 06:48:31 437.470
KAITUO 1B 24 Apr 06:40:59 06:44:37 45° 99° (E) 06:48:15 145.475/437.950
DOVE 4 24 Apr 06:48:44 06:53:22 69° 284° (WNW) 06:57:41 437.250
XW-2F 24 Apr 07:03:37 07:07:23 66° 283° (WNW) 07:11:09 145.980 - 146.000
RS-15 24 Apr 07:23:39 07:35:21 66° 112° (ESE) 07:47:29 29.354- 29.394
NUDT-PHONESAT 24 Apr 07:24:20 07:27:51 41° 285° (WNW) 07:31:22 437.300
SO-50 24 Apr 07:36:31 07:40:50 38° 303° (WNW) 07:45:07 436.795
CUTE 1.7 + AOD 2 24 Apr 07:47:50 07:51:55 42° 99° (E) 07:56:00 437.475
Tancredo 1 24 Apr 07:52:32 07:54:43 18° 128° (SE) 07:56:54 437.200
ISS 24 Apr 07:52:38 07:54:24 14° 127° (SE) 07:56:10 437.550
XW-2D 24 Apr 07:52:39 07:54:50 15° 291° (WNW) 07:57:01 145.860 - 145.880
AAUSAT CUBESAT 2 24 Apr 07:56:12 07:58:31 14° 93° (E) 08:00:48 437.432
M-CUBED/EXP-1 PRIME 24 Apr 07:58:43 08:02:28 26° 260° (W) 08:06:22 437.505
XW-2B 24 Apr 07:59:55 08:01:38 13° 291° (WNW) 08:03:21 145.730 - 145.750
STRAND 1 24 Apr 08:02:56 08:07:39 37° 261° (W) 08:12:22 437.568
SEEDS 24 Apr 08:13:23 08:17:34 55° 100° (E) 08:21:43 437.485
UWE-3 24 Apr 08:16:37 08:19:55 22° 96° (E) 08:23:16 435.000/436.395/437.385
HO-68 24 Apr 08:17:57 08:25:11 81° 105° (ESE) 08:32:23 435.675
CUTE-I 24 Apr 08:19:29 08:23:06 19° 294° (WNW) 08:26:43 437.470
XW-2A 24 Apr 08:19:52 08:23:10 55° 284° (WNW) 08:26:27 145.665 - 145.685
CUBEBUG 2 24 Apr 08:23:03 08:27:05 47° 100° (E) 08:31:09 437.445
PRISM 24 Apr 08:54:31 08:57:37 21° 69° (ENE) 09:00:44 437.425
ZACube-1 24 Apr 09:17:53 09:22:05 71° 101° (ESE) 09:26:22 437.345
CUTE 1.7 + AOD 2 24 Apr 09:25:14 09:27:20 13° 292° (WNW) 09:29:26 437.475
AO-73 24 Apr 09:26:28 09:30:41 82° 103° (ESE) 09:34:59 145.935
ISS 24 Apr 09:27:31 09:30:36 40° 321° (NW) 09:33:41 437.550
Tancredo 1 24 Apr 09:27:43 09:30:29 29° 323° (NW) 09:33:14 437.200
AAUSAT CUBESAT 2 24 Apr 09:30:12 09:34:02 35° 287° (WNW) 09:37:52 437.432
RS-15 24 Apr 09:37:44 09:48:35 37° 314° (NW) 09:59:47 29.354- 29.394
Oscar 11 24 Apr 09:45:37 09:49:57 72° 283° (WNW) 09:54:16 .
TIGRISAT 24 Apr 09:49:40 09:53:58 51° 75° (ENE) 09:58:11 435.000
SEEDS 24 Apr 09:51:56 09:52:42 10° 294° (WNW) 09:53:30 437.485
UWE-3 24 Apr 09:52:57 09:56:16 23° 289° (WNW) 09:59:37 435.000/436.395/437.385
CUBEBUG 2 24 Apr 10:01:58 10:03:16 11° 293° (WNW) 10:04:33 437.445
HO-68 24 Apr 10:07:45 10:12:01 17° 301° (WNW) 10:16:18 435.675
FO-29 24 Apr 10:09:00 10:15:39 71° 75° (ENE) 10:21:33 435.910
UNISAT 6 24 Apr 10:09:52 10:14:19 82° 257° (WSW) 10:18:42 437.425
OBJECT BX 24 Apr 10:27:31 10:31:10 75° 101° (E) 10:34:49 145.990 - 145.960
PRISM 24 Apr 10:29:18 10:32:43 25° 263° (W) 10:36:09 437.425
O/OREOS (USA 219) 24 Apr 10:31:55 10:36:24 59° 106° (ESE) 10:40:56 437.305
DELFI C3 24 Apr 10:39:18 10:43:14 56° 285° (WNW) 10:47:08 145.870
POLYITAN 1 24 Apr 10:56:46 10:59:51 20° 70° (ENE) 11:02:55 437.675
QB50P2 24 Apr 11:02:44 11:06:14 25° 71° (ENE) 11:09:43 145.880/145.840
AIST 2D 24 Apr 11:07:50 11:11:10 49° 76° (ENE) 11:14:33 435.315
NANOSAT C BR1 24 Apr 11:26:56 11:30:53 41° 74° (ENE) 11:34:51 145.865
TIGRISAT 24 Apr 11:29:40 11:30:50 11° 267° (W) 11:32:01 435.000
BUGSAT 1 24 Apr 11:37:39 11:39:55 14° 68° (ENE) 11:42:11 437.445
LO-87 24 Apr 11:40:33 11:44:08 77° 102° (ESE) 11:47:39 145.935 - 145.965
EO-79 24 Apr 11:52:38 11:56:53 83° 257° (WSW) 12:01:07 145.935-145.965
FO-29 24 Apr 11:57:34 12:00:54 14° 266° (W) 12:04:06 435.910
DUCHIFAT 1 24 Apr 11:57:58 12:02:10 88° 259° (WSW) 12:06:23 145.980
RS-15 24 Apr 12:01:03 12:06:30 13° 346° (NNW) 12:11:57 29.354- 29.394
